STARLINK-32959, 63569

Orbit data source: Space-Track

STARLINK-32959, 63569 is a payload satellite owned by SpaceX/Seattle (US) in LEO that was launched on Mon, 14 Apr 2025 UTC via an FALCON 9 launch vehicle from the Air Force Eastern Test Range (AFETR). Payload-class satellites include a variety of spacecraft equipped with specific instruments for various scientific and technological missions. These include communications satellites like Starlink; space stations such as the ISS; scientific satellites like the Hubble; Earth observation satellites from companies like Planet Labs, Umbra, and HawkEye 360; GPS; miniature CubeSats for education and research; and military/defense satellites.

Loading next visibility...
Identifier
63569, 2025-076A
Orbit
LEO
Last TLE update
9 hours ago
Origin
Manufacturer
SpaceX/Seattle
Mission
Operational Commercial Communications
Bus & Motor
STARLINK V2M, Unknown motor
Mass
730 kg wet, ~700 kg dry
Launch date (UTC)
2025-04-14 (3 months ago)
Launch vehicle
FALCON 9
Launch site
Air Force Eastern Test Range (AFETR)
Object type
Payload
Rocket body
Debris
Shape & HBR
Box + 2 Pan, 29 m
Radar Cross Section
36.964 m², Large (>1 m²)

Expand to show TLE details & history

TLE from 9 hours ago
0 STARLINK-32959
1 63569U 25076A   25182.07234406  .00019759  00000-0  72513-3 0  9995
2 63569  43.0035 306.6799 0002057 282.2074  77.8547 15.27601770 13070
Epoch: 2025-07-01T01:44Z
TLE epoch observation values (Epoch: 2025-07-01T01:44:10.526Z)
Latitude
-0.00005°
Longitude
1.26294°
Altitude
482.463 km
Speed
7.626 km/s
True Right ascension
20h 26m 43s
True Declination
0° 00' 00"
Sunlit
Object was in full shadow at epoch
Visualization orbit readout
Latitude
-30.32992°
Longitude
-142.21935°
Altitude
490.32 km
Speed
7.621 km/s
Apparent Right ascension
10h 34m 45s
Apparent Declination
-34° 52' 23"
Sunlit
Object is in daylight
Visualization observer readout
Local Sidereal Time
22:12:53
Azimuth
317.582° NNW
Elevation
-83.348°
Doppler factor
1
Orbital elements
Apogee altitude
486.34 km
Perigee altitude
483.517 km
Semi-major axis
6,863.066 km
Eccentricity
0.00021
Inclination
43.0035°
RAAN
306.6799°
Arg. of periapsis
282.2074°
True anomaly
Unknown
Mean anomaly
77.8547°
Eccentric anomaly
Unknown
Mean motion
3.81738 °/min
Orbital period
94.31 mins
BSTAR
0.00072513
Loading maneuver chart data...
Loading SW <> Apogee altitude chart data...
Loading historical data...
Loading historical data...
Loading historical data...
Loading historical data...
Loading historical data...
Loading historical data...
Loading historical data...

STARLINK-32959 Visibility forecast

Observer location: undefined°, undefined°

Span
Click to sort rows by Start time (UTC) header in descending order
Start Az.
Max El. time (UTC)
Max El. Az.
Max El.
End time (UTC)
End Az.
6 mins2025-07-01 11:20:25.172Z203.464° SW2025-07-01 11:23:25.172Z145.124° SSE24.141°2025-07-01 11:26:25.172Z89.731° E
6 mins2025-07-01 12:59:25.172Z256.334° W2025-07-01 13:02:25.172Z48.513° ENE43.25°2025-07-01 13:05:25.172Z70.974° E
5 mins2025-07-01 14:39:25.172Z296.274° NW2025-07-01 14:41:25.172Z13.833° NNE37.743°2025-07-01 14:44:25.172Z76.652° E
5 mins2025-07-01 16:18:25.172Z288.092° WNW2025-07-01 16:20:25.172Z120.076° SE44.952°2025-07-01 16:23:25.172Z109.504° ESE
4 mins2025-07-01 17:57:25.172Z249.152° W2025-07-01 17:59:25.172Z203.95° SW20.494°2025-07-01 18:01:25.172Z167.667° S
|